Theta_e
336 336 337 337 337 336 336 336 336 336 334 332 332 331 330 330 330 330 331 331 332 333 333 332 330 328 324
332 331 332 334 334 334 332 330 330 331 331 330 328 330 330 331 331 332 332 332 333 333 333 331 328 327 323
332 328 328 330 330 330 328 326 325 327 327 325 326 329 330 330 330 331 333 333 332 330 330 329 327 323 321
329 327 329 331 330 331 332 328 330 330 329 328 324 327 329 329 331 333 333 331 327 325 325 326 324 323 322
327 327 330 330 332 331 331 331 330 330 328 328 329 327 327 321 327 329 329 327 327 326 326 325 325 324 323
330 329 330 330 330 329 330 331 328 328 328 328 327 327 327 328 327 328 328 328 328 330 329 326 326 325 324
331 330 330 329 329 329 329 330 328 327 327 329 328 329 330 331 330 330 330 330 331 330 330 330 330 329 329
329 330 329 329 329 329 328 328 330 329 330 330 330 331 331 332 332 331 330 329 329 329 329 330 329 328 330
329 329 328 329 329 328 330 331 332 333 332 332 332 332 332 331 331 330 330 330 328 329 326 326 325 328 327
327 327 328 329 329 330 331 333 334 334 334 332 332 333 332 330 329 329 326 324 321 320 321 320 320 321 321
327 328 329 330 331 332 327 325 323 321 322 322 326 323 321 321 321 320 318 317 315 316 317 316 316 317 317
329 329 330 330 319 316 315 315 316 316 316 316 316 316 316 316 315 315 314 315 314 314 315 315 313 313 315
329 329 329 319 313 312 312 313 312 312 311 311 313 313 313 313 312 312 311 311 310 311 309 309 309 311 311
330 326 318 312 310 310 309 308 307 307 308 308 308 307 307 308 307 306 306 306 309 309 305 305 301 307 309
321 315 311 311 309 307 305 302 300 301 301 302 302 303 304 304 302 303 303 303 302 306 307 306 300 297 302
310 309 307 304 302 302 301 300 297 297 297 298 298 298 298 299 298 298 299 299 299 298 301 302 301 301 297
Wind_Speed
9 9 9 9 8 8 8 8 7 7 6 5 5 5 4 4 4 4 5 6 6 7 6 7 9 11 7
6 7 8 8 8 7 7 5 4 5 5 4 4 3 2 2 3 4 4 5 7 8 9 9 9 9 7
9 6 6 7 6 6 5 5 5 4 5 6 5 3 2 2 4 5 6 7 9 10 11 11 9 4 6
8 6 6 6 5 6 6 5 4 1 4 1 3 6 6 7 8 8 8 9 7 4 3 9 4 6 4
6 5 3 3 3 3 3 2 2 2 2 3 2 3 3 5 4 5 5 4 4 3 4 4 5 5 3
4 3 4 3 2 2 3 3 1 1 2 3 2 2 2 3 3 3 2 4 5 5 5 6 6 5 3
3 4 3 4 3 2 3 3 1 2 1 2 3 2 3 2 2 3 4 4 4 6 5 5 6 5 6
5 3 3 1 3 3 1 2 4 1 2 2 3 4 4 3 4 4 5 4 5 5 5 6 6 5 6
5 4 2 3 2 2 3 4 2 2 2 3 3 3 4 4 5 5 5 5 5 6 7 6 5 6 6
6 5 4 4 4 3 2 4 7 8 7 5 4 4 4 4 3 3 4 6 5 5 5 5 5 5 6
5 5 5 5 3 7 7 7 10 9 9 6 4 5 6 4 5 5 5 4 4 5 6 5 7 7 6
5 4 4 9 7 8 7 8 11 8 8 6 5 6 5 4 5 5 5 5 4 4 6 6 8 7 6
3 4 2 6 6 7 8 10 9 8 7 8 5 5 5 6 7 8 5 6 4 6 3 6 4 6 4
4 4 6 5 6 7 8 9 9 10 10 9 8 7 7 6 8 8 8 4 3 7 4 4 5 5 7
8 9 9 7 5 7 7 8 9 11 11 12 10 10 8 8 7 7 7 8 5 4 9 4 5 4 10
11 11 13 9 8 8 7 8 8 11 11 11 9 10 9 7 9 7 8 8 6 7 5 9 4 4 3
Wind_Direction
103 103 102 102 100 93 91 93 96 97 99 98 81 72 64 46 21 5 354 344 338 328 311 300 301 301 307
130 110 108 109 106 102 103 114 138 155 151 152 137 101 60 17 343 336 327 317 301 284 273 269 268 276 274
127 125 122 122 127 135 141 186 209 214 191 167 141 158 229 268 276 276 273 271 270 272 258 256 265 273 273
125 156 167 165 183 190 187 195 214 66 69 29 191 207 231 238 251 250 254 259 273 273 303 248 269 259 309
122 180 165 163 194 165 150 176 85 25 174 229 206 229 238 234 269 215 249 241 266 294 287 292 299 311 296
140 187 164 153 149 162 162 120 76 239 218 284 295 317 248 206 247 257 261 269 275 269 265 266 265 269 272
182 202 155 134 132 208 107 148 230 258 187 266 284 269 258 304 321 288 297 291 307 296 307 306 298 280 272
168 172 138 181 154 107 143 180 175 219 268 322 336 333 354 345 311 330 318 317 305 303 299 290 284 296 292
152 151 159 157 80 148 176 166 204 307 323 343 337 332 349 343 3 340 330 330 340 340 314 288 283 282 289
165 167 171 154 175 206 92 41 37 28 17 3 5 32 18 5 338 345 342 332 314 302 302 312 319 319 311
182 164 174 172 95 59 52 47 41 34 21 13 11 25 23 10 9 15 3 357 340 331 322 337 324 307 294
164 178 162 67 63 58 51 45 41 29 13 11 18 30 20 28 26 13 10 344 337 349 342 328 311 295 285
161 169 118 82 68 65 57 48 43 31 29 29 21 16 12 44 33 20 1 351 340 346 333 318 284 299 342
55 67 105 100 75 84 72 56 41 36 31 42 32 18 17 28 39 22 14 353 335 349 351 302 333 328 3
57 92 94 93 81 71 65 61 33 42 36 41 31 48 21 34 26 16 14 14 344 346 352 11 350 328 331
58 71 76 77 77 73 67 61 48 41 33 46 27 45 36 32 24 15 15 16 355 8 344 13 353 321 319